Regional Weather Roundup
Issued by NWS

Home | Current Version | Previous Version | Graphics & Text | Print | Product List | Glossary On
Versions: 1 2 3 4 5 6 7 8 9 10 11 12 13 14 15 16 17 18 19 20 21 22 23 24 25 26 27 28 29 30 31 32 33 34 35 36 37 38 39 40 41 42 43 44 45 46 47 48 49 50
000
ASUS43 KMKX 182021
RWRWI

WISCONSIN REGIONAL WEATHER ROUNDUP
NATIONAL WEATHER SERVICE MILWAUKEE/SULLIVAN WI
300 PM CDT FRI AUG 18 2017

NOTE: "FAIR" INDICATES FEW OR NO CLOUDS BELOW 12,000 FEET WITH NO
SIGNIFICANT WEATHER AND/OR OBSTRUCTIONS TO VISIBILITY.

WIZ001-002-006>008-014>016-023>028-182100-
NORTHWEST WISCONSIN

CITY           SKY/WX    TMP DP  RH WIND       PRES   REMARKS
SUPERIOR ARPT    N/A     69  63  80 SW6       29.84S
ASHLAND        CLOUDY    72  60  66 W7        29.85S
HAYWARD        CLOUDY    70  58  65 VRB5      29.88S
SIREN          CLOUDY    68  63  82 W6        29.89S
CUMBERLAND     CLOUDY    68  59  73 W7        29.89S
RICE LAKE      CLOUDY    70  62  76 SW5       29.90S
CHETEK         CLOUDY    71  62  73 W5        29.88F
LADYSMITH      CLOUDY    71  59  66 W9        29.89S
EAU CLAIRE     CLOUDY    70  63  78 W9        29.87F
MENOMONIE      DRIZZLE   69  62  78 W8        29.89S
NEW RICHMOND   CLOUDY    70  62  75 W9        29.90S
OSCEOLA        PTSUNNY   71  64  78 SW7       29.92S
$$

WIZ003>005-009-010-017-018-182100-
NORTH CENTRAL WISCONSIN

CITY           SKY/WX    TMP DP  RH WIND       PRES   REMARKS
MANITOWISH WTR CLOUDY    67  57  71 N6        29.86R
ARBOR VITAE    CLOUDY    68  56  65 NW12      29.85S
WOODRUFF       CLOUDY    68  56  65 NW12      29.85S
RHINELANDER    CLOUDY    69  56  62 NW7       29.85S
EAGLE RIVER    CLOUDY    67  52  60 NW10G16   29.84S
LAND O LAKES   CLOUDY    67  54  63 N9G18     29.85S
PHILLIPS       CLOUDY    67  57  70 NW6       29.87R
TOMAHAWK         N/A     69  55  62 W13       29.85F
MEDFORD        PTSUNNY   65  58  75 W8        29.87S
MERRILL        CLOUDY    70  59  68 W9        29.85F
$$

WIZ029-030-035-036-043>047-182100-
CENTRAL WISCONSIN

CITY           SKY/WX    TMP DP  RH WIND       PRES   REMARKS
WAUSAU         CLOUDY    68  59  73 W8        29.83F
MOSINEE        CLOUDY    68  59  73 W10       29.87S
MARSHFIELD     CLOUDY    69  59  70 W12       29.86S
STEVENS POINT  PTSUNNY   68  57  68 W10G16    29.86S
WAUPACA        PTSUNNY   74  60  60 W10       29.84S
WAUTOMA        MOSUNNY   74  59  59 NW13G18   29.85S
WISC RAPIDS    CLOUDY    71  60  68 W12       29.87S
CAMP DOUGLAS   CLOUDY    70  61  73 NW8       29.87S
$$

WIZ011>013-019>022-031-037>040-048>050-182100-
NORTHEAST WISCONSIN

CITY           SKY/WX    TMP DP  RH WIND       PRES   REMARKS
ANTIGO         PTSUNNY   68  57  68 NW13G21   29.84S
SHAWANO        CLOUDY    73  59  62 W9        29.82S
OCONTO         CLOUDY    71  60  66 W10       29.79F
STURGEON BAY   CLOUDY    70  60  70 W10       29.81R
GREEN BAY      CLOUDY    70  63  78 W12       29.81S
MANITOWOC      CLOUDY    71  59  65 W15       29.82R
APPLETON       PTSUNNY   70  55  60 W15       29.82F
CLINTONVILLE   CLOUDY    70  57  64 W8        29.82F
OSHKOSH        CLOUDY    72  60  66 NW8       29.83F
$$

WIZ032>034-041-042-053>061-182100-
SOUTHWEST WISCONSIN

CITY           SKY/WX    TMP DP  RH WIND       PRES   REMARKS
LA CROSSE      CLOUDY    73  62  68 W7        29.89R
SPARTA         CLOUDY    71  62  74 W6        29.89S
VIROQUA        CLOUDY    69  62  81 W5        29.91R
BOSCOBEL       CLOUDY    77  61  57 W7        29.89S
PRAIRIE DU CHI CLOUDY    73  57  58 W7        29.90R
PLATTEVILLE    PTSUNNY   75  64  69 W8        29.90S
$$

WIZ056-057-062-063-064-067-068-182100-
SOUTH CENTRAL WISCONSIN

CITY           SKY/WX    TMP DP  RH WIND       PRES   REMARKS
REEDSBURG      PTSUNNY   73  58  60 NW8G16    29.87S
BARABOO/DELLS  CLOUDY    73  56  55 W10       29.87S
LONE ROCK      CLOUDY    73  62  68 W10       29.88R
MINERAL POINT  PTSUNNY   75  63  64 W7        29.90S
MADISON        PTSUNNY   77  61  57 W9        29.85S
MIDDLETON      PTSUNNY   76  59  55 W9        29.87S
WATERTOWN      MOSUNNY   75  62  62 NW9       29.84F
MONROE         MOSUNNY   77  59  53 W12G17    29.88S
JANESVILLE     MOSUNNY   79  61  53 W8        29.86S HX  80
$$

WIZ051-052-058>065-066-070>072-182100-
SOUTHEAST WISCONSIN

CITY           SKY/WX    TMP DP  RH WIND       PRES   REMARKS
MILWAUKEE      PTSUNNY   77  59  53 NW14      29.83F
WAUKESHA       PTSUNNY   73  59  60 W13       29.86S
MILWAUKEE/TIMM CLOUDY    75  55  50 W13       29.85S
RACINE         MOSUNNY   77  62  59 W6        29.85F
KENOSHA        PTSUNNY   77  62  59 NW10      29.85F
FOND DU LAC    PTSUNNY   73  59  61 NW8       29.83F
SHEBOYGAN      CLOUDY    72  62  71 NW10G17   29.83S
WEST BEND      PTSUNNY   72  61  68 W12G17    29.84S
JUNEAU         CLOUDY    73  60  63 W7        29.86S
$$

LSZ147-162-182100-
LAKE SUPERIOR

STATION/POSITION TIME  TEMP    WIND        PRES    WAVE
                       AIR SEA DIR/SP/G            HT/PER
                 (UTC) (F)     (DEG/KT/KT) (MB)    (FT/S)
W MID LAKE BUOY  1950   61 60  270/ 14/ 17 1009.0F   2/ 3
DEVILS ISLAND    2000   63     220/  7/  9 1010.1S
PORT WING        1740   71     290/  4/  4 1010.8
SAXON HARBOR     1930   68     340/  5/  6 1010.2S
$$

LMZ867-665-643>646-182100-
LAKE MICHIGAN

STATION/POSITION TIME  TEMP    WIND        PRES    WAVE
                       AIR SEA DIR/SP/G            HT/PER
                 (UTC) (F)     (DEG/KT/KT) (MB)    (FT/S)
S GREEN BAY BUOY 2000   71 71  270/  8/ 10 1009.0
N MID LAKE BUOY  1950   65 67  290/ 12/ 16 1008.1R   4/ 5
NORTHPORT PIER   1940   67     320/  5/  9 1008.1R
KEWAUNEE LAKESHO 2000   71     290/  5/ 10 1008.4
SHEBOYGAN LAKESH 2000   69     290/ 14/ 17 1009.7R
PORT WASHINGTON  1930   75     280/  5/ 10 1010.8F
ATWATER BUOY     1909   72 70  270/ 10/ 14 1010.6
MILWAUKEE LAKESH 2000   74     270/ 10/ 13   N/A
S MID LAKE BUOY  1950   70 71  310/  8/ 10 1010.4F   3/ 5
KENOSHA   LAKESH 2000   75     270/  9/ 16 1010.5
$$

TC  - TEMPERATURE IN CELSIUS
VSB - VISIBILITY IN STATUTE MILES
WCI - WIND CHILL INDEX
HX  - HEAT INDEX





USA.gov is the U.S. government's official web portal to all federal, state and local government web resources and services.